Date String (YYYY-MM-DD hh:mm:ss) UTC,Instrument flags,absolute air pressure of the measurement (hPa),sample flow rate (lpm),inlet stack bypass flow (lpm),air temperature of the measurement (°C),ambient temperature measured by the external sensor (°C),aerosol sample conditioner tube jacket temperature (°C),OPC LED temperature (°C),internal box temperature (°C),relative humidity of the measurement (%),span deviation,mass concentration of particles derived from Lorenz-Mie calculation of OPC scattering (μg/m³),mass concentration of particles derived from Lorenz-Mie calculation of OPC scattering (μg/m³),mass concentration of particles derived from Lorenz-Mie calculation of OPC scattering (μg/m³)
DateTimeUTC,F1_M11,P_M11,Q1_M11,Q2_M11,T1_M11,T2_M11,T3_M11,T4_M11,T5_M11,U1_M11,ZSPAN_M11,X0_M11,X2_M11,X1_M11
2024-01-13 17:00:00,SystemResetWarning,0824.6,5.01,000.00,019.1,018.2,000.0,027.5,020.0,3.7,0000.0,0004.30,0001.86,0001.49
2024-01-13 17:01:00,SystemResetWarning,0824.8,5.01,000.00,019.1,018.2,000.0,027.5,020.2,3.7,0000.0,0004.38,0001.88,0001.49
2024-01-13 17:02:00,SystemResetWarning,0824.7,5.00,000.00,019.2,018.9,000.0,027.5,020.8,3.8,0000.0,0004.48,0001.92,0001.50
2024-01-13 17:03:00,SystemResetWarning,0824.7,4.99,000.00,019.3,019.5,000.0,027.5,020.9,3.7,0000.0,0004.47,0001.93,0001.50
2024-01-13 17:04:00,SystemResetWarning,0824.7,4.99,000.00,019.3,019.3,000.0,027.5,020.4,3.7,0000.0,0004.37,0001.90,0001.51
2024-01-13 17:05:00,SystemResetWarning,0824.7,5.00,000.00,019.2,018.9,000.0,027.5,020.0,3.8,0000.0,0004.36,0001.89,0001.50
2024-01-13 17:06:00,SystemResetWarning,0824.6,5.00,000.00,019.1,018.5,000.0,027.5,020.0,3.8,0000.0,0004.46,0001.91,0001.50
2024-01-13 17:07:00,SystemResetWarning,0824.7,5.00,000.00,019.1,018.2,000.0,027.5,020.0,3.8,0000.0,0004.33,0001.90,0001.49
2024-01-13 17:08:00,SystemResetWarning,0824.8,5.00,000.00,019.0,018.0,000.0,027.5,020.1,3.8,0000.0,0002.99,0001.93,0001.50
2024-01-13 17:09:00,SystemResetWarning,0824.9,5.01,000.00,019.1,018.4,000.0,027.5,020.5,3.8,0000.0,0003.04,0001.94,0001.51
2024-01-13 17:10:00,SystemResetWarning,0824.7,5.01,000.00,019.2,019.2,000.0,027.5,020.9,3.8,0000.0,0003.17,0001.96,0001.50
2024-01-13 17:11:00,SystemResetWarning,0824.7,4.98,000.00,019.3,019.2,000.0,027.5,020.5,3.8,0000.0,0003.43,0002.02,0001.50
2024-01-13 17:12:00,SystemResetWarning,0824.8,5.00,000.00,019.1,018.8,000.0,027.5,020.0,3.8,0000.0,0003.56,0002.03,0001.51
2024-01-13 17:13:00,SystemResetWarning,0824.8,5.00,000.00,019.1,018.4,000.0,027.5,020.0,3.8,0000.0,0003.51,0002.03,0001.50
2024-01-13 17:14:00,SystemResetWarning,0824.7,5.00,000.00,019.1,018.1,000.0,027.5,020.0,3.8,0000.0,0004.01,0002.07,0001.52
2024-01-13 17:15:00,SystemResetWarning,0824.8,5.01,000.00,019.1,018.2,000.0,027.5,020.3,3.8,0000.0,0004.14,0002.09,0001.53
2024-01-13 17:16:00,SystemResetWarning,0824.7,5.02,000.00,019.2,019.0,000.0,027.5,020.8,3.8,0000.0,0004.18,0002.12,0001.54
2024-01-13 17:17:00,SystemResetWarning,0824.7,4.99,000.00,019.3,019.5,000.0,027.5,020.8,3.8,0000.0,0004.15,0002.13,0001.55
2024-01-13 17:18:00,SystemResetWarning,0824.6,5.00,000.00,019.2,019.2,000.0,027.5,020.2,3.8,0000.0,0004.18,0002.16,0001.57
2024-01-13 17:19:00,SystemResetWarning,0824.7,5.01,000.00,019.1,018.8,000.0,027.5,020.0,3.8,0000.0,0004.16,0002.17,0001.58
2024-01-13 17:20:00,SystemResetWarning,0824.7,5.01,000.00,019.1,018.4,000.0,027.5,020.0,3.8,0000.0,0004.14,0002.18,0001.58
2024-01-13 17:21:00,SystemResetWarning,0824.7,5.00,000.00,019.0,018.1,000.0,027.5,020.0,3.8,0000.0,0004.03,0002.18,0001.59
2024-01-13 17:22:00,SystemResetWarning,0824.8,4.99,000.00,019.0,018.0,000.0,027.5,020.1,3.8,0000.0,0003.84,0002.13,0001.60
2024-01-13 17:23:00,SystemResetWarning,0824.9,5.01,000.00,019.1,018.6,000.0,027.5,020.6,3.8,0000.0,0003.62,0002.09,0001.61
2024-01-13 17:24:00,SystemResetWarning,0824.7,5.00,000.00,019.2,019.3,000.0,027.5,020.9,3.8,0000.0,0003.58,0002.08,0001.62
2024-01-13 17:25:00,SystemResetWarning,0824.7,4.99,000.00,019.2,019.2,000.0,027.4,020.4,3.7,0000.0,0003.43,0002.08,0001.62
2024-01-13 17:26:00,SystemResetWarning,0824.7,4.99,000.00,019.1,018.8,000.0,027.4,020.0,3.8,0000.0,0003.79,0002.08,0001.62
2024-01-13 17:27:00,SystemResetWarning,0824.7,5.01,000.00,019.1,018.4,000.0,027.5,020.0,3.8,0000.0,0004.77,0002.12,0001.62
2024-01-13 17:28:00,SystemResetWarning,0824.9,5.01,000.00,019.0,018.1,000.0,027.5,020.0,3.8,0000.0,0004.84,0002.11,0001.62
2024-01-13 17:29:00,SystemResetWarning,0824.8,5.01,000.00,019.1,018.3,000.0,027.5,020.4,3.7,0000.0,0004.84,0002.12,0001.62
2024-01-13 17:30:00,SystemResetWarning,0824.7,5.00,000.00,019.2,019.1,000.0,027.4,020.9,3.7,0000.0,0004.84,0002.13,0001.61
2024-01-13 17:31:00,SystemResetWarning,0824.7,4.99,000.00,019.3,019.4,000.0,027.4,020.7,3.7,0000.0,0004.89,0002.15,0001.63
2024-01-13 17:32:00,SystemResetWarning,0824.7,4.98,000.00,019.2,019.0,000.0,027.4,020.1,3.7,0000.0,0004.91,0002.15,0001.63
2024-01-13 17:33:00,SystemResetWarning,0824.7,5.01,000.00,019.1,018.6,000.0,027.5,020.0,3.7,0000.0,0004.89,0002.16,0001.63
2024-01-13 17:34:00,SystemResetWarning,0824.7,5.01,000.00,019.1,018.3,000.0,027.5,020.0,3.7,0000.0,0004.88,0002.17,0001.63
2024-01-13 17:35:00,SystemResetWarning,0824.7,4.98,000.00,019.0,018.1,000.0,027.5,020.0,3.8,0000.0,0005.00,0002.22,0001.66
2024-01-13 17:36:00,SystemResetWarning,0824.7,5.01,000.00,019.1,018.3,000.0,027.5,020.4,3.8,0000.0,0004.90,0002.22,0001.67
2024-01-13 17:37:00,SystemResetWarning,0824.6,5.01,000.00,019.2,019.2,000.0,027.5,020.9,3.8,0000.0,0004.26,0002.24,0001.69
2024-01-13 17:38:00,SystemResetWarning,0824.6,4.98,000.00,019.3,019.4,000.0,027.5,020.7,3.8,0000.0,0003.58,0002.27,0001.72
2024-01-13 17:39:00,SystemResetWarning,0824.8,5.00,000.00,019.2,019.1,000.0,027.4,020.2,3.8,0000.0,0003.42,0002.27,0001.73
2024-01-13 17:40:00,SystemResetWarning,0824.9,5.00,000.00,019.1,018.7,000.0,027.4,020.0,3.8,0000.0,0003.53,0002.29,0001.73
2024-01-13 17:41:00,SystemResetWarning,0824.7,5.00,000.00,019.1,018.4,000.0,027.5,020.0,3.8,0000.0,0003.50,0002.28,0001.74
2024-01-13 17:42:00,SystemResetWarning,0824.4,5.01,000.00,019.0,018.1,000.0,027.5,020.0,3.9,0000.0,0003.47,0002.27,0001.74
2024-01-13 17:43:00,SystemResetWarning,0824.7,5.00,000.00,019.0,018.1,000.0,027.5,020.2,3.8,0000.0,0003.48,0002.27,0001.75
2024-01-13 17:44:00,SystemResetWarning,0824.7,5.01,000.00,019.1,018.8,000.0,027.5,020.7,3.8,0000.0,0003.50,0002.28,0001.75
2024-01-13 17:45:00,SystemResetWarning,0824.9,4.99,000.00,019.3,019.5,000.0,027.5,020.9,3.8,0000.0,0003.46,0002.27,0001.76
2024-01-13 17:46:00,SystemResetWarning,0824.9,4.98,000.00,019.2,019.3,000.0,027.4,020.3,3.8,0000.0,0003.51,0002.29,0001.75
2024-01-13 17:47:00,SystemResetWarning,0824.7,5.00,000.00,019.1,018.9,000.0,027.4,020.0,3.8,0000.0,0003.79,0002.28,0001.73
2024-01-13 17:48:00,SystemResetWarning,0824.8,5.01,000.00,019.1,018.5,000.0,027.5,020.0,3.8,0000.0,0004.19,0002.27,0001.72
2024-01-13 17:49:00,SystemResetWarning,0824.7,5.00,000.00,019.0,018.2,000.0,027.5,020.0,3.8,0000.0,0004.06,0002.21,0001.71
2024-01-13 17:50:00,SystemResetWarning,0824.5,5.00,000.00,019.0,018.0,000.0,027.5,020.0,3.8,0000.0,0004.00,0002.21,0001.71
2024-01-13 17:51:00,SystemResetWarning,0824.8,5.00,000.00,019.0,018.0,000.0,027.5,020.2,3.8,0000.0,0003.94,0002.21,0001.71
2024-01-13 17:52:00,SystemResetWarning,0824.8,5.01,000.00,019.1,018.8,000.0,027.4,020.7,3.8,0000.0,0004.03,0002.24,0001.72
2024-01-13 17:53:00,SystemResetWarning,0824.7,5.00,000.00,019.2,019.5,000.0,027.4,020.9,3.7,0000.0,0004.62,0002.24,0001.71
2024-01-13 17:54:00,SystemResetWarning,0824.4,4.99,000.00,019.2,019.3,000.0,027.4,020.5,3.7,0000.0,0004.70,0002.23,0001.72
2024-01-13 17:55:00,SystemResetWarning,0824.7,4.98,000.00,019.1,018.9,000.0,027.4,020.1,3.7,0000.0,0004.69,0002.23,0001.73
2024-01-13 17:56:00,SystemResetWarning,0824.9,5.01,000.00,019.1,018.6,000.0,027.4,020.0,3.7,0000.0,0004.77,0002.26,0001.74
2024-01-13 17:57:00,SystemResetWarning,0824.7,5.01,000.00,019.0,018.3,000.0,027.5,020.0,3.8,0000.0,0004.68,0002.20,0001.74
2024-01-13 17:58:00,SystemResetWarning,0824.7,4.99,000.00,019.0,018.1,000.0,027.5,020.0,3.8,0000.0,0004.34,0002.18,0001.75
2024-01-13 17:59:00,SystemResetWarning,0824.7,4.99,000.00,019.0,017.9,000.0,027.5,020.0,3.8,0000.0,0003.92,0002.18,0001.76
